Simultaneous Nadir Overpasses (SNOs) Predictions

Prediction of SNOs between AQUA and NPP Satellite Orbit:

Table of predicted SNOs for the next 14.0 days since TLE Epoch: 1/16/2015
Index Date (AQUA) Time (AQUA) Lat,Lon (AQUA) SZA (AQUA ) Date (NPP) Time (NPP) Lat,Lon (NPP) SZA (NPP ) Distance(km) Time Diff (sec)
1 01/16/2015 17:47:29 -58.15, -49.50 44.90 01/16/2015 17:46:43 -58.15, -49.51 44.82 0.63 46
2 01/16/2015 18:34:37 66.01, 124.18 128.04 01/16/2015 18:35:05 66.01, 124.20 127.99 1.22 28
3 01/19/2015 10:03:21 -60.49, 67.87 47.37 01/19/2015 10:02:51 -60.49, 67.86 47.32 0.76 30
4 01/19/2015 10:50:58 66.65,-119.30 127.00 01/19/2015 10:51:43 66.65,-119.33 126.95 1.44 45
5 01/22/2015 02:19:01 -63.47,-174.02 50.54 01/22/2015 02:18:47 -63.48,-173.99 50.53 1.60 14
6 01/22/2015 03:07:07 67.93, -2.01 125.29 01/22/2015 03:08:09 67.92, -2.05 125.22 1.70 62
7 01/24/2015 17:48:02 56.59, 129.59 135.12 01/24/2015 17:46:52 56.59, 129.57 135.24 0.67 70
8 01/24/2015 18:35:19 -64.23, -57.50 51.76 01/24/2015 18:35:23 -64.22, -57.54 51.76 1.67 4
9 01/24/2015 19:19:31 80.08, 149.45 111.20 01/24/2015 19:20:44 79.82, 150.61 110.99 36.71 73
10 01/27/2015 10:03:36 59.84,-112.57 131.69 01/27/2015 10:02:43 59.84,-112.57 131.76 0.34 53
11 01/27/2015 10:51:02 -66.86, 60.91 54.83 01/27/2015 10:51:23 -66.87, 60.95 54.88 1.73 21
12 01/30/2015 02:19:27 62.09, 4.90 129.02 01/30/2015 02:18:52 62.09, 4.90 129.06 0.11 35
